Regional Weather Roundup
Issued by NWS

Home | Current Version | Previous Version | Text Only | Print | Product List | Glossary On
Versions: 1 2 3 4 5 6 7 8 9 10 11 12 13 14 15 16 17 18 19 20 21 22 23 24 25 26 27 28
000
ASCA42 TJSJ 101710
RWRPR
PUERTO RICO/U.S. VIRGIN ISLANDS HOURLY WEATHER ROUNDUP
NATIONAL WEATHER SERVICE SAN JUAN PR
100 PM AST SAT DEC 10 2016

PRZ001>002-007>008-010-101800-
PUERTO RICO

CITY           SKY/WX    TMP DP  RH WIND       PRES   REMARKS
SAN JUAN LMM   MOSUNNY   86  75  70 NE15      30.05F HX  95
PONCE          MOSUNNY   90  77  66 E14       30.05F HX 102
MAYAGUEZ       MOSUNNY   86  72  62 W7        30.04F HX  92
AGUADILLA      MOSUNNY   84  73  70 NE16      30.07F HX  91
CEIBA          MOSUNNY   84  75  74 E8        30.08F HX  92
$$

VIZ001>002-101800-
U.S. VIRGIN ISLANDS

CITY           SKY/WX    TMP DP  RH WIND       PRES   REMARKS
CHARLOTTE AMA  MOSUNNY   84  75  74 E8        30.06F HX  92
CHRISTIANSTED  MOSUNNY   86  73  66 E14       30.06F HX  93
$$

HOURLY WEATHER ROUNDUP FOR THE NEWS MEDIA

CITY           SKY/WX    TMP DP  RH WIND       PRES   REMARKS
ORLANDO        SUNNY     69  53  56 NE12      30.34F
NEW YORK       PTSUNNY   38  19  46 W12       30.38F WCI  30
NEWARK         PTSUNNY   36  18  48 W15G24    30.37F WCI  27
CHICAGO        PTSUNNY   22  13  68 W10       30.49F WCI  11
HARTFORD       SUNNY     30   6  36 NW9       30.27F WCI  22
BOSTON         MOSUNNY   28   7  41 W12G21    30.28F WCI  18
DALLAS         PTSUNNY   43  26  51 S12       30.46F
PHILADELPHIA   MOSUNNY   35  15  44 NW14      30.42F WCI  26
LOS ANGELES    CLOUDY    56  54  93 E5        30.19R FOG
WASHINGTON DC  PTSUNNY   34  11  38 NW14      30.48F WCI  25



USA.gov is the U.S. government's official web portal to all federal, state and local government web resources and services.